Location: Coffee Creek Observatory
(38.8077°N, 94.7179°W)
Time: 17:27:37
(UTC-06:00)

Amateur Radio Satellites - All Passes

Search period start: 17 December 2014 16:57
Search period end: 18 December 2014 16:57
Location: Coffee Creek Observatory, 38.8077°N, 94.7179°W

Satellite Date Start Highest point End Downlink Frequencies (MHz)
Time Altitude Azimuth
ISS 17 Dec 17:00:51 17:02:32 13° 343° (NNW) 17:04:14 145.825
CUTE-I 17 Dec 17:15:27 17:20:25 41° 70° (ENE) 17:25:23 437.470
JAS-2 17 Dec 17:20:39 17:28:07 49° 261° (W) 17:35:07 435.910
SRMSAT 17 Dec 17:36:36 17:38:00 11° 185° (S) 17:39:25 437.500
CUBESAT XI-V 17 Dec 17:48:48 17:49:59 11° 90° (E) 17:51:10 437.345
AO-7 17 Dec 17:55:46 17:58:24 12° 272° (W) 18:01:02 29.400- 29.500
AIST 1 17 Dec 18:01:11 18:04:40 23° 285° (WNW) 18:08:09
MOZHAYETS 4 17 Dec 18:10:22 18:14:19 28° 291° (WNW) 18:18:14
STRAND 1 17 Dec 18:12:55 18:16:29 19° 93° (E) 18:20:02 437.568
RS-15 17 Dec 18:13:58 18:21:07 18° 14° (NNE) 18:28:23 29.354- 29.394
GONETS M04 17 Dec 18:16:47 18:25:05 50° 271° (W) 18:33:19
Cubesat XI-IV 17 Dec 18:20:57 18:26:05 48° 260° (W) 18:31:14 437.490
PRISM 17 Dec 18:32:32 18:36:43 77° 103° (ESE) 18:40:50 437.425
CUTE-I 17 Dec 18:56:26 19:00:36 23° 266° (W) 19:04:47 437.470
MaSat-1 17 Dec 18:58:40 19:00:54 33° 63° (ENE) 19:03:16 437.345
HO-68 17 Dec 19:12:49 19:18:47 30° 62° (ENE) 19:24:45 435.675
CUBESAT XI-V 17 Dec 19:23:17 19:27:51 66° 285° (WNW) 19:32:23 437.345
STRAND 1 17 Dec 19:51:01 19:55:53 47° 289° (WNW) 20:00:44 437.568
CUSAT 1 17 Dec 19:52:14 19:58:25 27° 71° (ENE) 20:05:14 437.405
AAUSAT CUBESAT 2 17 Dec 19:54:35 19:57:44 21° 68° (ENE) 20:00:54 437.432
DOVE 4 17 Dec 19:55:11 19:57:58 18° 67° (ENE) 20:00:46 437.250
CANX-2 17 Dec 19:55:23 19:59:17 36° 72° (ENE) 20:03:14 2200.000
BRITE-PL 17 Dec 20:07:35 20:11:41 49° 74° (ENE) 20:15:41 437.365/2234.400
ISS 17 Dec 20:15:37 20:17:59 18° 24° (NNE) 20:20:22 145.825
DX 1 17 Dec 20:24:19 20:27:23 19° 66° (ENE) 20:30:28 434.975-435.025
CUTE 1.7 + AOD 2 17 Dec 20:26:16 20:30:30 78° 76° (ENE) 20:34:48 437.475
COMPASS 1 17 Dec 20:26:22 20:30:28 55° 74° (ENE) 20:34:37 437.405
RS-15 17 Dec 20:26:54 20:37:32 45° 46° (NE) 20:48:33 29.354- 29.394
SEEDS 17 Dec 20:27:17 20:31:28 68° 75° (ENE) 20:35:43 437.485
DANDE 17 Dec 20:27:20 20:34:17 41° 75° (ENE) 20:42:13 436.750
CINEMA 3 17 Dec 20:43:41 20:47:28 36° 72° (ENE) 20:51:20 145.822/145.860
CUBEBUG 2 17 Dec 20:49:08 20:52:34 25° 69° (ENE) 20:56:03 437.445
GOMX 1 17 Dec 20:50:48 20:54:58 74° 258° (WSW) 20:59:07 467.674
Oscar 11 17 Dec 20:51:23 20:55:30 46° 73° (ENE) 20:59:40 145.826/435.025
UKube-1 17 Dec 20:57:47 21:01:52 42° 72° (ENE) 21:05:59 .
HO-68 17 Dec 20:59:08 21:06:06 53° 259° (W) 21:13:06 435.675
DELFI C3 17 Dec 21:02:49 21:06:47 50° 74° (ENE) 21:10:48 145.870
HUMSAT D 17 Dec 21:04:33 21:07:05 16° 66° (ENE) 21:09:39 437.325/437.525
VELOX 1 17 Dec 21:05:10 21:08:05 18° 66° (ENE) 21:11:00 145.980
50 SAT 17 Dec 21:08:11 21:10:12 14° 65° (ENE) 21:12:13 437.505
ZACube-1 17 Dec 21:13:34 21:17:20 34° 71° (ENE) 21:21:11 437.345
AAUSAT CUBESAT 2 17 Dec 21:29:30 21:33:12 30° 264° (W) 21:36:56 437.432
DOVE 4 17 Dec 21:31:46 21:35:31 33° 263° (W) 21:39:17 437.250
CANX-2 17 Dec 21:32:30 21:35:20 17° 267° (W) 21:38:11 2200.000
UWE-3 17 Dec 21:33:21 21:37:29 72° 76° (ENE) 21:41:42 435.000/436.395/437.385
CUSAT 1 17 Dec 21:34:22 21:41:50 67° 265° (W) 21:50:15 437.405
FUNcube-1 17 Dec 21:40:54 21:45:02 73° 76° (ENE) 21:49:15 145.935
AISAT 17 Dec 21:44:53 21:49:07 47° 73° (ENE) 21:53:23 437.250
BRITE-PL 17 Dec 21:49:00 21:50:29 12° 268° (W) 21:51:58 437.365/2234.400
BEESAT 3 17 Dec 21:50:08 21:52:03 13° 43° (NE) 21:53:57 437.485
ISS 17 Dec 21:51:37 21:54:52 69° 221° (SW) 21:58:06 145.825
ANTELSAT 17 Dec 21:52:31 21:55:11 15° 92° (E) 21:57:51 437.575/2403.000
SO-50 17 Dec 21:52:50 21:57:18 73° 119° (ESE) 22:01:57 436.795
DX 1 17 Dec 21:59:22 22:03:22 36° 262° (W) 22:07:23 434.975-435.025
CUBEBUG 1 17 Dec 22:03:22 22:07:03 27° 69° (ENE) 22:10:43 437.445
COMPASS 1 17 Dec 22:05:12 22:06:31 11° 270° (W) 22:07:51 437.405
DANDE 17 Dec 22:10:43 22:17:44 44° 268° (W) 22:25:43 436.750
QB50P2 17 Dec 22:12:33 22:14:48 14° 92° (E) 22:17:02 145.880/145.840
BUGSAT 1 17 Dec 22:17:04 22:18:12 11° 92° (E) 22:19:19 437.445
POLYITAN 1 17 Dec 22:19:42 22:22:31 17° 93° (E) 22:25:21 437.675
CINEMA 3 17 Dec 22:22:16 22:24:51 16° 267° (W) 22:27:27 145.822/145.860
NANOSAT C BR1 17 Dec 22:24:38 22:27:41 19° 94° (E) 22:30:44 145.865
CUBEBUG 2 17 Dec 22:25:52 22:29:13 23° 265° (W) 22:32:37 437.445
BEESAT 2 17 Dec 22:25:57 22:29:22 23° 49° (NE) 22:32:44 435.950
TIGRISAT 17 Dec 22:28:47 22:33:06 35° 97° (E) 22:37:25 435.000
Oscar 11 17 Dec 22:29:34 22:31:54 14° 268° (W) 22:34:15 145.826/435.025
ESTCUBE 1 17 Dec 22:30:37 22:35:04 58° 74° (ENE) 22:39:32 437.505/2401.250
UKube-1 17 Dec 22:35:39 22:38:13 15° 267° (W) 22:40:48 .
QB50P1 17 Dec 22:38:00 22:41:38 27° 96° (E) 22:45:16 145.935-145.965
HUMSAT D 17 Dec 22:38:43 22:42:33 39° 262° (W) 22:46:28 437.325/437.525
RS-15 17 Dec 22:39:18 22:50:14 57° 248° (WSW) 23:01:40 29.354- 29.394
VELOX 1 17 Dec 22:40:09 22:44:20 41° 261° (W) 22:48:32 145.980
DELFI C3 17 Dec 22:40:53 22:42:21 12° 269° (W) 22:43:48 145.870
50 SAT 17 Dec 22:41:12 22:45:02 44° 261° (W) 22:48:54 437.505
PCSat 17 Dec 22:49:41 22:54:03 24° 50° (NE) 22:58:23 145.827
ZACube-1 17 Dec 22:51:03 22:53:50 17° 267° (W) 22:56:39 437.345
UNISAT 6 17 Dec 22:55:56 23:00:38 72° 102° (ESE) 23:05:21 437.425
POPSAT HIP 1 17 Dec 23:05:49 23:10:02 58° 101° (E) 23:14:14 437.405
AIST 2 17 Dec 23:15:23 23:19:20 34° 52° (NE) 23:23:14 435.215
CUSAT 1 17 Dec 23:21:24 23:23:56 12° 279° (W) 23:26:32 437.405
AISAT 17 Dec 23:23:36 23:25:59 14° 268° (W) 23:28:23 437.250
SPROUT 17 Dec 23:23:38 23:27:43 45° 73° (ENE) 23:31:48 437.525
YUBILEINY 17 Dec 23:25:42 23:33:17 35° 85° (E) 23:40:51 435.215
BEESAT 3 17 Dec 23:26:35 23:30:45 76° 241° (WSW) 23:34:51 437.485
ANTELSAT 17 Dec 23:27:40 23:32:14 52° 287° (WNW) 23:36:49 437.575/2403.000
TISAT 1 17 Dec 23:30:35 23:34:44 61° 75° (ENE) 23:38:53 437.305
DUCHIFAT 1 17 Dec 23:35:30 23:39:42 63° 285° (WNW) 23:43:54 145.980
SO-50 17 Dec 23:35:39 23:38:24 16° 318° (NW) 23:41:12 436.795
CUBEBUG 1 17 Dec 23:39:43 23:43:21 25° 264° (W) 23:46:58 437.445
QB50P2 17 Dec 23:46:51 23:50:56 45° 287° (WNW) 23:55:00 145.880/145.840
BUGSAT 1 17 Dec 23:50:03 23:53:58 51° 286° (WNW) 23:57:55 437.445
POLYITAN 1 17 Dec 23:54:38 23:58:35 37° 288° (WNW) 00:02:32 437.675
NANOSAT C BR1 17 Dec 23:59:48 00:03:37 33° 289° (WNW) 00:07:26 145.865
BEESAT 2 18 Dec 00:03:54 00:07:39 32° 246° (WSW) 00:11:21 435.950
TIGRISAT 18 Dec 00:06:00 00:09:37 23° 293° (WNW) 00:13:15 435.000
ESTCUBE 1 18 Dec 00:10:24 00:12:17 12° 269° (W) 00:14:10 437.505/2401.250
QB50P1 18 Dec 00:14:00 00:17:24 24° 291° (WNW) 00:20:48 145.935-145.965
AUBIESAT-1 18 Dec 00:17:18 00:20:59 22° 61° (ENE) 00:24:44 437.475
ITUPSAT 1 18 Dec 00:26:26 00:30:50 37° 70° (ENE) 00:35:14 437.325
SWISSCUBE 18 Dec 00:27:09 00:31:39 41° 71° (ENE) 00:36:08 437.505
PCSat 18 Dec 00:32:29 00:37:43 49° 248° (WSW) 00:42:54 145.827
UNISAT 6 18 Dec 00:35:02 00:36:48 12° 297° (WNW) 00:38:35 437.425
M-CUBED/EXP-1 PRIME 18 Dec 00:39:39 00:44:05 39° 66° (ENE) 00:48:40 437.505
Oscar 19 18 Dec 00:40:34 00:43:30 15° 91° (E) 00:46:25 437.125/150
POPSAT HIP 1 18 Dec 00:43:45 00:45:25 12° 296° (WNW) 00:47:06 437.405
BEESAT 18 Dec 00:52:30 00:57:15 70° 75° (ENE) 01:02:03 436.000
AIST 2 18 Dec 00:54:28 00:57:44 22° 249° (WSW) 01:00:58 435.215
O/OREOS (USA 219) 18 Dec 00:58:12 01:02:23 41° 106° (ESE) 01:06:34 437.305
SPROUT 18 Dec 01:01:47 01:04:01 14° 268° (W) 01:06:16 437.525
KKS-1 18 Dec 01:10:22 01:13:38 21° 67° (ENE) 01:16:55 437.445
STARS 18 Dec 01:14:14 01:16:44 15° 65° (ENE) 01:19:14 437.465
YUBILEINY 18 Dec 01:21:22 01:29:45 49° 284° (WNW) 01:38:08 435.215
AUBIESAT-1 18 Dec 01:51:06 01:55:36 43° 257° (WSW) 02:00:15 437.475
ITUPSAT 1 18 Dec 02:05:05 02:08:47 22° 265° (W) 02:12:31 437.325
Gurwin Techsat 1B 18 Dec 02:05:08 02:09:15 23° 94° (E) 02:13:21 435.225
SWISSCUBE 18 Dec 02:06:12 02:09:38 20° 266° (W) 02:13:06 437.505
M-CUBED/EXP-1 PRIME 18 Dec 02:15:25 02:19:09 23° 262° (W) 02:23:01 437.505
Oscar 19 18 Dec 02:18:05 02:23:13 61° 287° (WNW) 02:28:19 437.125/150
ITAMSAT 1 18 Dec 02:27:01 02:32:08 60° 101° (E) 02:37:13 435.822/435.867
HORYU 2 18 Dec 02:32:49 02:35:08 14° 92° (E) 02:37:27 437.375
BEESAT 18 Dec 02:34:10 02:35:33 11° 270° (W) 02:36:56 436.000
O/OREOS (USA 219) 18 Dec 02:38:52 02:41:57 18° 303° (WNW) 02:45:04 437.305
KKS-1 18 Dec 02:46:01 02:50:03 34° 262° (W) 02:54:06 437.445
STARS 18 Dec 02:48:35 02:52:48 48° 260° (W) 02:57:03 437.465
MOZHAYETS 4 18 Dec 03:34:28 03:38:03 23° 67° (ENE) 03:41:39
Gurwin Techsat 1B 18 Dec 03:44:22 03:49:21 42° 290° (WNW) 03:54:18 435.225
AO-7 18 Dec 03:59:18 04:07:10 43° 100° (E) 04:14:57 29.400- 29.500
VERMONT LUNAR 18 Dec 04:04:23 04:07:34 32° 153° (SSE) 04:10:46 437.305
PHONESAT 2.4 18 Dec 04:04:30 04:07:25 23° 149° (SSE) 04:10:21 2401.200-2431.200
HORYU 2 18 Dec 04:07:41 04:12:05 51° 287° (WNW) 04:16:27 437.375
ITAMSAT 1 18 Dec 04:07:57 04:11:06 17° 297° (WNW) 04:14:15 435.822/435.867
AIST 1 18 Dec 04:08:46 04:13:04 77° 82° (E) 04:17:19
JAS-2 18 Dec 04:33:31 04:37:59 24° 92° (E) 04:42:10 435.910
CUBESAT XI-V 18 Dec 04:52:10 04:53:08 11° 62° (ENE) 04:54:06 437.345
MOZHAYETS 4 18 Dec 05:10:50 05:15:03 34° 263° (W) 05:19:18
GONETS M04 18 Dec 05:19:31 05:27:34 41° 87° (E) 05:35:37
PRISM 18 Dec 05:21:57 05:26:00 48° 73° (ENE) 05:30:05 437.425
STRAND 1 18 Dec 05:27:33 05:31:41 25° 66° (ENE) 05:35:48 437.568
CUTE-I 18 Dec 05:34:49 05:38:23 18° 93° (E) 05:41:55 437.470
PHONESAT 2.4 18 Dec 05:42:13 05:45:51 83° 164° (SSE) 05:49:29 2401.200-2431.200
VERMONT LUNAR 18 Dec 05:42:13 05:45:46 80° 349° (NNW) 05:49:18 437.305
AO-7 18 Dec 05:52:10 05:59:51 42° 298° (WNW) 06:07:31 29.400- 29.500
JAS-2 18 Dec 06:18:00 06:23:18 39° 292° (WNW) 06:28:10 435.910
CUBESAT XI-V 18 Dec 06:25:12 06:29:54 79° 258° (WSW) 06:34:35 437.345
SO-50 18 Dec 06:25:31 06:30:15 47° 54° (NE) 06:34:59 436.795
Cubesat XI-IV 18 Dec 06:39:19 06:44:39 77° 103° (ESE) 06:49:57 437.490
PRISM 18 Dec 06:59:45 07:01:47 13° 268° (W) 07:03:49 437.425
STRAND 1 18 Dec 07:05:57 07:10:39 37° 262° (W) 07:15:22 437.568
CUTE-I 18 Dec 07:13:35 07:18:44 53° 288° (WNW) 07:23:52 437.470
GONETS M04 18 Dec 07:16:04 07:24:17 42° 286° (WNW) 07:32:33
VERMONT LUNAR 18 Dec 07:20:43 07:24:15 67° 6° (N) 07:27:46 437.305
PHONESAT 2.4 18 Dec 07:21:03 07:24:39 65° 1° (N) 07:28:17 2401.200-2431.200
SO-50 18 Dec 08:06:54 08:10:29 20° 250° (WSW) 08:14:03 436.795
BRITE-PL 18 Dec 08:13:21 08:16:40 19° 94° (E) 08:20:08 437.365/2234.400
CUTE 1.7 + AOD 2 18 Dec 08:14:33 08:17:03 15° 92° (E) 08:19:32 437.475
SEEDS 18 Dec 08:15:16 08:17:13 13° 91° (E) 08:19:10 437.485
Cubesat XI-IV 18 Dec 08:21:30 08:24:03 14° 299° (WNW) 08:26:36 437.490
HO-68 18 Dec 08:28:27 08:34:45 33° 97° (E) 08:40:59 435.675
CINEMA 3 18 Dec 08:41:45 08:43:07 11° 90° (E) 08:44:29 145.822/145.860
ANTELSAT 18 Dec 08:52:27 08:53:44 11° 62° (ENE) 08:55:02 437.575/2403.000
GOMX 1 18 Dec 08:53:05 08:57:25 35° 98° (E) 09:02:01 467.674
VERMONT LUNAR 18 Dec 08:59:07 09:02:34 51° 202° (SSW) 09:06:01 437.305
PHONESAT 2.4 18 Dec 08:59:49 09:03:26 70° 198° (SSW) 09:07:04 2401.200-2431.200
CUSAT 1 18 Dec 09:05:55 09:07:19 12° 81° (E) 09:08:52 437.405
POLYITAN 1 18 Dec 09:13:37 09:15:11 12° 64° (ENE) 09:16:45 437.675
AAUSAT CUBESAT 2 18 Dec 09:13:56 09:18:01 45° 99° (E) 09:22:04 437.432
CANX-2 18 Dec 09:17:40 09:22:01 90° 102° (ESE) 09:26:20 2200.000
NANOSAT C BR1 18 Dec 09:17:49 09:19:48 13° 65° (ENE) 09:21:46 145.865
UWE-3 18 Dec 09:25:35 09:28:37 17° 93° (E) 09:31:41 435.000/436.395/437.385
TIGRISAT 18 Dec 09:27:06 09:30:40 26° 69° (ENE) 09:34:20 435.000
QB50P1 18 Dec 09:30:42 09:33:36 18° 67° (ENE) 09:36:30 145.935-145.965
DOVE 4 18 Dec 09:30:46 09:35:29 65° 101° (E) 09:40:27 437.250
FUNcube-1 18 Dec 09:31:52 09:34:45 17° 93° (E) 09:37:39 145.935
YUBILEINY 18 Dec 09:38:29 09:43:02 15° 61° (ENE) 09:47:33 435.215
DANDE 18 Dec 09:42:57 09:45:42 26° 88° (E) 09:49:06 436.750
COMPASS 1 18 Dec 09:47:14 09:51:28 63° 285° (WNW) 09:55:39 437.405
DX 1 18 Dec 09:48:53 09:52:59 40° 99° (E) 09:57:03 434.975-435.025
CUTE 1.7 + AOD 2 18 Dec 09:49:05 09:53:11 43° 287° (WNW) 09:57:15 437.475
SEEDS 18 Dec 09:49:10 09:53:19 50° 286° (WNW) 09:57:27 437.485
MaSat-1 18 Dec 09:50:13 09:52:25 33° 297° (WNW) 09:54:32 437.345
BRITE-PL 18 Dec 09:50:54 09:55:16 42° 287° (WNW) 09:59:57 437.365/2234.400
UNISAT 6 18 Dec 09:54:03 09:58:15 52° 73° (ENE) 10:02:34 437.425
POPSAT HIP 1 18 Dec 09:57:54 10:01:46 36° 72° (ENE) 10:05:38 437.405
HO-68 18 Dec 10:15:49 10:22:33 46° 294° (WNW) 10:29:14 435.675
Oscar 11 18 Dec 10:15:58 10:20:20 71° 284° (WNW) 10:24:39 145.826/435.025
CINEMA 3 18 Dec 10:15:59 10:20:40 71° 284° (WNW) 10:25:32 145.822/145.860
CUBEBUG 2 18 Dec 10:16:58 10:21:36 74° 102° (ESE) 10:26:19 437.445
DELFI C3 18 Dec 10:19:52 10:24:00 74° 284° (WNW) 10:28:05 145.870
UKube-1 18 Dec 10:22:43 10:27:04 84° 284° (WNW) 10:31:23 .
50 SAT 18 Dec 10:23:06 10:26:38 26° 96° (E) 10:30:09 437.505
HUMSAT D 18 Dec 10:24:25 10:28:24 35° 98° (E) 10:32:24 437.325/437.525
ANTELSAT 18 Dec 10:25:36 10:29:54 67° 259° (WSW) 10:34:20 437.575/2403.000
ESTCUBE 1 18 Dec 10:26:40 10:28:51 13° 91° (E) 10:31:01 437.505/2401.250
DUCHIFAT 1 18 Dec 10:26:54 10:31:06 81° 76° (ENE) 10:35:19 145.980
GOMX 1 18 Dec 10:31:39 10:35:22 24° 291° (WNW) 10:39:16 467.674
VELOX 1 18 Dec 10:32:12 10:36:21 39° 99° (E) 10:40:29 145.980
QB50P2 18 Dec 10:38:31 10:42:43 72° 258° (WSW) 10:46:57 145.880/145.840
BUGSAT 1 18 Dec 10:38:51 10:42:59 90° 259° (W) 10:47:05 437.445
VERMONT LUNAR 18 Dec 10:39:06 10:40:24 12° 216° (SW) 10:41:42 437.305
ZACube-1 18 Dec 10:39:12 10:43:44 87° 283° (WNW) 10:48:20 437.345
PHONESAT 2.4 18 Dec 10:39:13 10:41:46 18° 213° (SSW) 10:44:19 2401.200-2431.200
POLYITAN 1 18 Dec 10:46:28 10:50:37 57° 259° (W) 10:54:47 437.675
CUSAT 1 18 Dec 10:46:39 10:49:42 31° 289° (WNW) 10:53:37 437.405
AAUSAT CUBESAT 2 18 Dec 10:50:53 10:53:17 15° 294° (WNW) 10:55:40 437.432
NANOSAT C BR1 18 Dec 10:51:08 10:55:13 51° 260° (W) 10:59:20 145.865
RS-15 18 Dec 10:51:36 11:00:04 27° 103° (ESE) 11:08:28 29.354- 29.394
UWE-3 18 Dec 11:00:59 11:05:18 43° 287° (WNW) 11:09:42 435.000/436.395/437.385
TIGRISAT 18 Dec 11:03:45 11:07:21 26° 265° (W) 11:11:01 435.000
QB50P1 18 Dec 11:05:23 11:09:13 35° 262° (W) 11:13:06 145.935-145.965
FUNcube-1 18 Dec 11:06:59 11:11:16 44° 287° (WNW) 11:15:35 145.935
O/OREOS (USA 219) 18 Dec 11:09:04 11:13:33 65° 67° (ENE) 11:18:03 437.305
DOVE 4 18 Dec 11:10:28 11:12:47 14° 295° (WNW) 11:15:09 437.250
AISAT 18 Dec 11:13:41 11:18:05 68° 285° (WNW) 11:22:29 437.250
TISAT 1 18 Dec 11:19:43 11:20:37 11° 91° (E) 11:21:32 437.305
DX 1 18 Dec 11:26:02 11:28:54 17° 294° (WNW) 11:31:44 434.975-435.025
DANDE 18 Dec 11:27:41 11:29:28 13° 297° (WNW) 11:31:29 436.750
CUBEBUG 1 18 Dec 11:29:14 11:33:33 64° 101° (ESE) 11:37:50 437.445
YUBILEINY 18 Dec 11:32:35 11:41:19 80° 82° (E) 11:50:01 435.215
UNISAT 6 18 Dec 11:33:32 11:35:23 13° 269° (W) 11:37:16 437.425
POPSAT HIP 1 18 Dec 11:35:02 11:37:47 17° 267° (W) 11:40:32 437.405
Oscar 19 18 Dec 11:56:07 11:59:48 20° 65° (ENE) 12:03:31 437.125/150
CUBEBUG 2 18 Dec 11:56:14 11:57:42 11° 297° (WNW) 11:59:10 437.445
50 SAT 18 Dec 11:58:26 12:01:44 23° 291° (WNW) 12:05:01 437.505
HUMSAT D 18 Dec 12:00:53 12:03:57 19° 293° (WNW) 12:07:01 437.325/437.525
ESTCUBE 1 18 Dec 12:01:39 12:06:01 52° 287° (WNW) 12:10:22 437.505/2401.250
VELOX 1 18 Dec 12:09:37 12:12:37 18° 294° (WNW) 12:15:37 145.980
SWISSCUBE 18 Dec 12:31:23 12:32:51 11° 90° (E) 12:34:19 437.505
SPROUT 18 Dec 12:47:32 12:51:50 73° 284° (WNW) 12:56:06 437.525
O/OREOS (USA 219) 18 Dec 12:51:26 12:52:20 11° 263° (W) 12:53:14 437.305
TISAT 1 18 Dec 12:52:38 12:56:47 58° 286° (WNW) 13:00:56 437.305
BEESAT 18 Dec 12:55:13 12:58:40 20° 94° (E) 13:02:06 436.000
RS-15 18 Dec 13:00:17 13:11:14 76° 303° (WNW) 13:22:15 29.354- 29.394
CUBEBUG 1 18 Dec 13:08:01 13:09:21 11° 297° (WNW) 13:10:41 437.445
AO-7 18 Dec 13:12:04 13:13:48 11° 44° (NE) 13:15:31 29.400- 29.500
BEESAT 3 18 Dec 13:20:29 13:23:58 27° 113° (ESE) 13:27:30 437.485
Gurwin Techsat 1B 18 Dec 13:24:52 13:29:31 32° 68° (ENE) 13:34:10 435.225
PCSat 18 Dec 13:30:30 13:34:52 26° 107° (ESE) 13:39:15 145.827
YUBILEINY 18 Dec 13:31:23 13:37:00 19° 281° (W) 13:42:38 435.215
HORYU 2 18 Dec 13:31:25 13:33:05 12° 62° (ENE) 13:34:45 437.375
Oscar 19 18 Dec 13:33:51 13:38:46 47° 261° (W) 13:43:45 437.125/150
AUBIESAT-1 18 Dec 13:36:34 13:39:27 17° 96° (E) 13:42:10 437.475
ITAMSAT 1 18 Dec 13:43:42 13:48:52 80° 75° (ENE) 13:54:04 435.822/435.867
BEESAT 2 18 Dec 13:57:22 14:01:25 65° 118° (ESE) 14:05:33 435.950
M-CUBED/EXP-1 PRIME 18 Dec 13:59:28 14:03:32 36° 101° (ESE) 14:07:15 437.505
ITUPSAT 1 18 Dec 14:05:49 14:10:36 77° 285° (WNW) 14:15:20 437.325
SWISSCUBE 18 Dec 14:06:25 14:11:10 68° 286° (WNW) 14:15:52 437.505
ISS 18 Dec 14:31:27 14:34:44 77° 140° (SE) 14:38:02 145.825
BEESAT 18 Dec 14:32:12 14:36:38 40° 289° (WNW) 14:41:03 436.000
JUGNU 18 Dec 14:36:08 14:38:02 12° 179° (S) 14:39:56 437.505
KKS-1 18 Dec 14:38:09 14:42:30 49° 100° (E) 14:46:49 437.445
STARS 18 Dec 14:40:00 14:44:02 33° 98° (E) 14:48:02 437.465
JAS-2 18 Dec 14:45:33 14:49:09 14° 58° (ENE) 14:52:38 435.910
AIST 2 18 Dec 14:50:32 14:54:45 74° 302° (WNW) 14:59:03 435.215
AO-7 18 Dec 14:56:41 15:04:38 52° 65° (ENE) 15:12:37 29.400- 29.500
BEESAT 3 18 Dec 14:58:36 15:02:05 26° 310° (NW) 15:05:38 437.485
HORYU 2 18 Dec 15:04:44 15:09:09 65° 258° (WSW) 15:13:38 437.375
Gurwin Techsat 1B 18 Dec 15:04:48 15:09:25 30° 264° (W) 15:14:04 435.225
AUBIESAT-1 18 Dec 15:10:31 15:14:36 37° 294° (WNW) 15:18:21 437.475
PCSat 18 Dec 15:12:54 15:18:01 42° 304° (NW) 15:23:10 145.827
RS-15 18 Dec 15:17:14 15:25:47 25° 330° (NNW) 15:34:29 29.354- 29.394
ITAMSAT 1 18 Dec 15:27:40 15:28:55 11° 270° (W) 15:30:10 435.822/435.867
GONETS M04 18 Dec 15:32:16 15:37:57 18° 64° (ENE) 15:43:34
M-CUBED/EXP-1 PRIME 18 Dec 15:35:00 15:38:14 20° 300° (WNW) 15:41:17 437.505
SRMSAT 18 Dec 15:35:23 15:36:55 11° 176° (S) 15:38:26 437.500
BEESAT 2 18 Dec 15:37:51 15:40:06 14° 316° (NW) 15:42:23 435.950
ISS 18 Dec 16:09:20 16:11:39 18° 337° (NNW) 16:13:59 145.825
KKS-1 18 Dec 16:16:06 16:18:43 16° 295° (WNW) 16:21:20 437.445
STARS 18 Dec 16:16:57 16:20:17 21° 293° (WNW) 16:23:37 437.465
Cubesat XI-IV 18 Dec 16:23:24 16:26:05 14° 61° (ENE) 16:28:46 437.490
JAS-2 18 Dec 16:25:27 16:33:11 75° 74° (ENE) 16:40:19 435.910
AIST 1 18 Dec 16:36:54 16:41:08 48° 93° (E) 16:45:21
